DateTime,F1_A11,F1_S11,BsB_S11,BsG_S11,BsR_S11,BbsB_S11,BbsG_S11,BbsR_S11,BaB_A11,BaG_A11,BaR_A11,T_S11,U_S11,P_S11,T1_A11
2016-08-15T00:00:00Z,0000382,21000602,,,,,,,,,,27.5,00.4,0664.1,34.8
2016-08-15T00:01:00Z,0000382,21000602,,,,,,,,,,27.5,00.3,0664.1,34.8
2016-08-15T00:02:00Z,0000382,21000602,,,,,,,,,,27.5,00.3,0664.1,34.8
2016-08-15T00:03:00Z,0000382,61000602,,,,,,,,,,27.6,00.3,0664.1,34.8
2016-08-15T00:04:00Z,0000382,41000602,0000.54,0000.75,0000.51,0000.59,0000.06,0000.61,0000.42,0000.11,0000.19,27.6,00.0,0665.0,34.8
2016-08-15T00:05:00Z,0000382,01000602,-000.40,0000.33,0000.50,0000.41,-000.05,0000.30,-000.19,-000.15,-000.70,27.6,00.0,0665.1,34.8
2016-08-15T00:06:00Z,0000382,01000602,-000.44,0001.65,0001.39,0000.02,-000.05,0000.10,0000.63,0000.64,0000.73,27.6,00.0,0665.2,34.8
2016-08-15T00:07:00Z,0000382,01000602,0000.14,-000.04,-000.43,0000.13,0000.27,-000.08,-000.17,-000.29,-000.35,27.6,00.0,0665.2,34.8
2016-08-15T00:08:00Z,0000382,01000602,-000.40,0000.32,0000.33,0000.24,-000.38,0000.42,0000.23,0000.28,0000.16,27.6,00.0,0665.2,34.8
2016-08-15T00:09:00Z,0000382,01000602,0000.62,-000.04,0000.21,-000.19,0000.17,-000.16,0000.03,-000.04,0000.07,27.5,00.0,0665.2,34.8
2016-08-15T00:10:00Z,0000382,01000602,-000.49,-000.34,-000.21,0000.61,-000.16,0000.03,-000.01,0000.13,0000.16,27.5,00.0,0665.2,34.8
2016-08-15T00:11:00Z,0000382,01000602,-000.23,-000.13,-000.26,0000.38,0000.03,0000.10,0000.21,0000.11,0000.05,27.5,00.0,0665.2,34.8
2016-08-15T00:12:00Z,0000382,01000602,-000.56,-000.16,0000.00,-000.14,-000.06,0000.00,-000.03,0000.01,-000.33,27.5,00.0,0665.2,34.8
2016-08-15T00:13:00Z,0000382,01000602,0000.50,-000.41,-000.28,-000.40,-000.76,-000.10,-000.11,-000.23,0000.16,27.5,00.0,0665.2,34.8
2016-08-15T00:14:00Z,0000382,01000602,0000.11,0000.22,-000.56,0000.77,0000.08,-000.03,-000.03,-000.19,-000.20,27.5,00.0,0665.2,34.8
2016-08-15T00:15:00Z,0000382,01000602,0000.94,-000.63,0000.37,0000.03,-000.35,0000.13,-000.13,0000.25,-000.50,27.5,00.0,0665.2,34.8
2016-08-15T00:16:00Z,0000382,01000602,-000.57,-000.22,-000.42,-000.03,-000.41,-000.24,0000.14,-000.14,0000.31,27.5,00.0,0665.2,34.8
2016-08-15T00:17:00Z,0000382,01000602,-000.13,0000.43,0000.35,0000.21,-000.08,-000.32,-000.03,-000.07,-000.14,27.5,00.0,0665.2,34.8
2016-08-15T00:18:00Z,0000382,01000602,0001.97,0001.81,0001.83,0000.48,0000.59,0000.91,0000.75,0000.73,0000.47,27.5,00.0,0665.2,34.8
2016-08-15T00:19:00Z,0000382,01000602,0001.46,0003.18,0004.36,-000.08,0000.22,0000.46,0001.47,0001.08,0001.08,27.5,00.0,0665.2,34.8
2016-08-15T00:20:00Z,0000382,01000602,0000.00,-000.34,-000.52,-000.16,-000.06,0000.05,-000.17,-000.05,-000.08,27.5,00.0,0665.2,34.8
2016-08-15T00:21:00Z,0000382,01000602,-000.54,0000.17,0000.33,0000.46,-000.21,0000.08,-000.12,0000.07,0000.08,27.5,00.0,0665.2,34.8
2016-08-15T00:22:00Z,0000382,01000602,0000.12,0001.53,0000.39,-000.21,-000.06,0000.03,0000.63,0000.44,0000.00,27.5,00.0,0665.2,34.8
2016-08-15T00:23:00Z,0000382,01000602,-000.22,0000.96,0000.70,0000.26,0000.29,0000.00,0000.70,0000.58,0000.82,27.5,00.0,0665.2,34.8
2016-08-15T00:24:00Z,0000382,01000602,0001.19,0001.41,0001.26,0000.54,0000.76,0000.32,0000.67,0000.67,0000.33,27.5,00.0,0665.2,34.8
2016-08-15T00:25:00Z,0000382,01000602,0000.90,0001.36,0001.37,-000.48,0000.03,0000.35,0000.23,0000.11,0000.02,27.5,00.0,0665.2,34.8
2016-08-15T00:26:00Z,0000382,01000602,-000.14,0000.23,-000.31,0000.43,-000.19,-000.19,-000.25,-000.10,-000.06,27.5,00.0,0665.2,34.8
2016-08-15T00:27:00Z,0000382,01000602,0000.18,0000.28,-000.09,0000.19,0000.25,0000.37,0000.18,0000.22,0000.03,27.5,00.0,0665.2,34.8
2016-08-15T00:28:00Z,0000382,01000602,0000.26,0001.34,0001.59,0000.57,0000.43,0000.54,0000.16,0000.13,0000.24,27.5,00.0,0665.2,34.8
2016-08-15T00:29:00Z,0000382,01000602,0001.84,0001.29,0001.35,0000.53,0000.02,0000.45,0001.07,0000.80,0000.55,27.5,00.0,0665.2,34.8
2016-08-15T00:30:00Z,0000382,01000602,-000.42,0001.45,0002.00,0000.05,0000.14,0000.62,0000.56,0000.76,0000.83,27.5,00.0,0665.2,34.8
2016-08-15T00:31:00Z,0000382,01000602,0001.08,0000.61,0000.11,-000.05,0000.06,-000.08,0000.17,-000.12,-000.56,27.5,00.0,0665.2,34.8
2016-08-15T00:32:00Z,0000382,01000602,-000.56,0000.08,-000.07,-000.53,0000.17,0000.26,-000.10,-000.18,-000.01,27.5,00.0,0665.2,34.8
2016-08-15T00:33:00Z,0000382,01000602,0000.76,0001.63,0000.78,0000.03,-000.25,0000.06,0000.12,0000.09,-000.01,27.5,00.0,0665.2,34.8
2016-08-15T00:34:00Z,0000382,01000602,0000.81,0000.77,0001.10,-000.24,0000.11,0000.14,0000.69,0000.53,0000.30,27.5,00.0,0665.2,34.8
2016-08-15T00:35:00Z,0000382,01000602,0000.00,0001.41,0000.62,0000.43,-000.25,0000.21,0000.11,0000.19,0000.39,27.5,00.0,0665.2,34.8
2016-08-15T00:36:00Z,0000382,01000602,0000.81,0000.96,0000.98,0000.33,-000.05,0000.29,0000.64,0000.80,0000.81,27.5,00.0,0665.3,34.8
2016-08-15T00:37:00Z,0000382,01000602,0000.35,-000.02,-000.45,0000.27,0000.02,-000.02,0000.14,-000.09,-000.17,27.4,00.0,0665.2,34.8
2016-08-15T00:38:00Z,0000382,01000602,-000.88,0000.10,-000.64,0000.48,-000.11,-000.03,-000.02,0000.00,0000.21,27.4,00.0,0665.2,34.8
2016-08-15T00:39:00Z,0000382,01000602,0000.36,0000.45,-000.40,0000.14,-000.06,0000.10,0000.09,0000.08,-000.33,27.5,00.0,0665.2,34.8
2016-08-15T00:40:00Z,0000382,01000602,0000.92,0000.56,0000.10,-000.24,-000.25,0000.38,-000.16,-000.18,-000.04,27.5,00.0,0665.2,34.8
2016-08-15T00:41:00Z,0000382,01000602,-000.97,0000.49,0000.04,0000.65,-000.59,0000.56,0000.15,0000.16,0000.16,27.5,00.0,0665.2,34.8
2016-08-15T00:42:00Z,0000382,01000602,0000.02,0000.35,0000.11,-000.38,-000.22,-000.16,-000.09,0000.13,0000.06,27.5,00.0,0665.2,34.8
2016-08-15T00:43:00Z,0000382,01000602,-000.86,0000.23,-000.16,0000.62,0000.03,-000.27,0000.14,-000.18,-000.33,27.5,00.0,0665.2,34.8
2016-08-15T00:44:00Z,0000382,01000602,-000.01,0000.28,0000.15,-000.61,0000.08,-000.11,-000.08,-000.02,0000.20,27.5,00.0,0665.2,34.8
2016-08-15T00:45:00Z,0000382,01000602,-000.42,0000.19,0000.07,-000.59,0000.25,-000.02,0000.26,0000.23,0000.20,27.5,00.0,0665.2,34.8
2016-08-15T00:46:00Z,0000382,01000602,0000.07,0001.09,0000.22,0000.54,0000.22,0000.53,0000.59,0000.44,0000.12,27.5,00.0,0665.2,34.8
2016-08-15T00:47:00Z,0000382,01000602,0000.44,0001.10,0001.19,0000.03,-000.27,0000.45,0000.52,0000.52,0000.63,27.5,00.0,0665.2,34.8
2016-08-15T00:48:00Z,0000382,01000602,-000.58,0000.24,-000.02,0000.32,-000.22,0000.19,-000.13,-000.37,-000.01,27.5,00.0,0665.2,34.8
2016-08-15T00:49:00Z,0000382,01000602,0000.07,-000.29,-000.14,-000.41,-000.05,-000.03,-000.01,0000.19,-000.47,27.5,00.0,0665.2,34.8
2016-08-15T00:50:00Z,0000382,01000602,0001.18,0000.77,0000.74,0000.08,-000.16,0000.21,0000.48,0000.53,0000.63,27.5,00.0,0665.2,34.8
2016-08-15T00:51:00Z,0000382,01000602,-000.84,-000.40,-000.15,-000.41,-000.43,0000.11,0000.03,-000.20,-000.22,27.5,00.0,0665.1,34.8
2016-08-15T00:52:00Z,0000382,01000602,0001.53,0002.17,0002.03,0000.22,0000.02,0000.30,0001.41,0001.42,0001.42,27.5,00.0,0665.1,34.8
2016-08-15T00:53:00Z,0000382,01000602,-000.31,0000.64,-000.04,-000.70,-000.11,0000.43,-000.47,-000.20,-000.42,27.5,00.0,0665.1,34.8
2016-08-15T00:54:00Z,0000382,01000602,0000.34,0001.61,0001.30,0000.30,0000.30,0000.37,0000.75,0000.31,0000.44,27.6,00.0,0665.1,34.8
2016-08-15T00:55:00Z,0000382,01000602,-000.69,0000.39,0000.52,-000.11,-000.16,0000.42,-000.15,-000.22,-000.51,27.6,00.0,0665.1,34.8
2016-08-15T00:56:00Z,0000382,01000602,0000.03,0000.53,0000.35,0000.24,-000.11,0000.21,0000.32,0000.36,0000.57,27.6,00.0,0665.1,34.8
2016-08-15T00:57:00Z,0000382,41000602,,,,,,,,,,,,0665.1,34.8
2016-08-15T00:58:00Z,0000382,61000602,,,,,,,,,,27.5,00.0,0664.1,34.8
2016-08-15T00:59:00Z,0000382,21000602,,,,,,,,,,27.5,00.0,0664.1,34.8
2016-08-15T01:00:00Z,0000382,21000602,,,,,,,,,,27.5,00.0,0664.1,34.9
2016-08-15T01:01:00Z,0000382,21000602,,,,,,,,,,27.5,00.0,0664.1,34.9
2016-08-15T01:02:00Z,0000382,21000602,,,,,,,,,,27.5,00.0,0664.1,34.9
2016-08-15T01:03:00Z,0000382,61000602,,,,,,,,,,27.6,00.0,0664.1,34.9
2016-08-15T01:04:00Z,0000382,41000602,-000.61,0001.27,0002.02,0000.43,0000.14,0000.73,0000.10,0000.46,0000.04,27.7,00.0,0665.0,34.9
2016-08-15T01:05:00Z,0000382,01000602,0000.29,0000.44,-000.41,0000.19,0000.14,0000.11,-000.14,-000.21,-000.02,27.6,00.0,0665.1,34.9
2016-08-15T01:06:00Z,0000382,01000602,0002.35,0002.61,0001.78,0000.26,0000.54,0000.83,0001.09,0000.92,0000.59,27.6,00.0,0665.1,34.9
2016-08-15T01:07:00Z,0000382,01000602,0000.64,0000.58,-000.29,-000.18,-000.11,-000.11,-000.29,-000.22,-000.13,27.6,00.0,0665.1,34.9
2016-08-15T01:08:00Z,0000382,01000602,-001.41,-000.27,-000.43,0000.29,0000.10,0000.03,-000.04,-000.11,0000.10,27.6,00.0,0665.1,34.9
2016-08-15T01:09:00Z,0000382,01000602,0001.01,0001.01,0000.17,-000.03,0000.38,0000.19,0000.31,0000.20,0000.16,27.6,00.0,0665.1,34.9
2016-08-15T01:10:00Z,0000382,01000602,0000.74,-000.07,-000.15,0000.22,0000.48,-000.13,-000.22,-000.01,-000.34,27.6,00.0,0665.1,34.9
2016-08-15T01:11:00Z,0000382,01000602,0000.79,0000.86,0001.08,-000.19,0000.40,0000.18,0000.64,0000.26,0000.51,27.6,00.0,0665.1,34.9
2016-08-15T01:12:00Z,0000382,01000602,0000.67,0001.06,0000.52,0000.46,0000.30,-000.06,0000.37,0000.32,-000.10,27.6,00.0,0665.0,34.9
2016-08-15T01:13:00Z,0000382,01000602,-000.59,0000.41,0000.32,-000.03,0000.35,-000.11,0000.33,0000.26,0000.26,27.6,00.0,0665.1,34.9
2016-08-15T01:14:00Z,0000382,01000602,0000.74,0001.06,0000.97,-000.08,-000.08,0000.29,0000.06,0000.21,0000.33,27.6,00.0,0665.0,34.9
2016-08-15T01:15:00Z,0000382,01000602,0000.54,0000.94,0000.85,-000.35,0000.37,0000.59,0000.70,0000.59,0000.30,27.6,00.0,0665.1,34.8
2016-08-15T01:16:00Z,0000382,01000602,0000.97,0000.24,0000.88,0000.10,-000.25,0000.16,-000.08,-000.08,0000.16,27.6,00.0,0665.0,34.8
2016-08-15T01:17:00Z,0000382,01000602,0001.75,0000.81,0001.31,0000.49,0000.46,0000.35,0000.22,0000.15,0000.06,27.6,00.0,0665.0,34.8
2016-08-15T01:18:00Z,0000382,01000602,-000.16,0000.66,0000.86,0000.10,-000.05,0000.38,0000.42,0000.35,0000.01,27.6,00.0,0665.1,34.8
2016-08-15T01:19:00Z,0000382,01000602,-000.24,0000.63,0000.06,0000.27,0000.00,0000.37,0000.41,0000.39,0000.26,27.6,00.0,0665.0,34.8
2016-08-15T01:20:00Z,0000382,01000602,-001.00,-000.04,-000.19,0000.43,-000.37,0000.34,0000.06,-000.04,0000.01,27.5,00.0,0665.0,34.8
2016-08-15T01:21:00Z,0000382,01000602,0001.06,0002.42,0002.76,0000.33,0000.62,0000.49,0001.03,0000.98,0000.65,27.5,00.0,0665.0,34.8
2016-08-15T01:22:00Z,0000382,01000602,-000.43,0000.44,0000.00,0000.18,-000.11,0000.38,-000.02,-000.22,-000.20,27.5,00.0,0665.0,34.8
2016-08-15T01:23:00Z,0000382,01000602,-000.22,0000.48,-000.07,0000.38,0000.41,0000.56,-000.31,-000.13,0000.10,27.5,00.0,0665.0,34.8
2016-08-15T01:24:00Z,0000382,01000602,-000.49,0000.64,-000.23,0000.00,0000.03,0000.13,0000.02,-000.02,-000.01,27.5,00.0,0665.0,34.8
2016-08-15T01:25:00Z,0000382,01000602,0000.87,0001.16,0001.51,0000.22,0000.35,0000.18,0000.36,0000.42,0000.30,27.5,00.0,0665.0,34.8
2016-08-15T01:26:00Z,0000382,01000602,0000.64,0001.74,0001.41,0000.62,0000.43,0000.29,0000.62,0000.33,0000.18,27.5,00.0,0665.0,34.8
2016-08-15T01:27:00Z,0000382,01000602,-000.06,0001.04,0000.09,-000.22,0000.13,0000.59,0000.42,0000.42,0000.25,27.5,00.0,0665.0,34.8
2016-08-15T01:28:00Z,0000382,01000602,-000.22,0000.36,0000.18,-000.48,0000.43,0000.21,0000.05,0000.17,0000.04,27.5,00.0,0665.0,34.8
2016-08-15T01:29:00Z,0000382,01000602,0000.71,0000.04,0000.41,0000.65,0000.44,-000.30,0000.63,0000.22,0000.29,27.5,00.0,0665.0,34.8
2016-08-15T01:30:00Z,0000382,01000602,0000.52,0002.34,0001.78,-000.05,0000.83,0000.61,0000.42,0000.66,0000.46,27.5,00.0,0665.0,34.8
2016-08-15T01:31:00Z,0000382,01000602,0001.04,0000.60,0000.92,0000.05,0000.06,0000.06,0000.14,-000.03,0000.01,27.5,00.0,0665.0,34.8
2016-08-15T01:32:00Z,0000382,01000602,0000.52,0000.56,-000.11,0000.13,-000.02,0000.08,0000.04,0000.06,-000.33,27.5,00.0,0665.0,34.8
2016-08-15T01:33:00Z,0000382,01000602,0000.63,0001.53,0001.02,0000.41,0000.49,0000.56,0000.14,0000.22,0000.21,27.5,00.0,0665.0,34.8
2016-08-15T01:34:00Z,0000382,01000602,0000.22,0000.41,0000.65,0000.33,0000.27,0000.29,-000.02,-000.00,0000.11,27.5,00.0,0665.0,34.8
2016-08-15T01:35:00Z,0000382,01000602,-000.99,0000.47,0000.26,0000.02,0000.06,0000.42,-000.10,-000.22,0000.03,27.5,00.0,0665.0,34.8
2016-08-15T01:36:00Z,0000382,01000602,0001.26,0000.97,0000.77,-000.53,0000.11,0000.22,0000.44,0000.01,0000.22,27.5,00.0,0665.0,34.8
2016-08-15T01:37:00Z,0000382,01000602,-000.30,0000.36,0000.11,-000.27,-000.03,-000.32,0000.09,0000.49,-000.04,27.5,00.0,0665.0,34.8
2016-08-15T01:38:00Z,0000382,01000602,-000.39,0000.57,0000.40,0000.81,-000.11,0000.43,-000.07,-000.11,0000.11,27.5,00.0,0665.0,34.8
2016-08-15T01:39:00Z,0000382,01000602,-000.02,0000.74,0000.12,-000.33,0000.00,0000.03,-000.04,-000.08,-000.45,27.5,00.0,0664.9,34.8
2016-08-15T01:40:00Z,0000382,01000602,-000.89,0000.00,-000.15,-000.53,-000.08,0000.50,0000.24,0000.01,0000.38,27.5,00.0,0664.9,34.8
2016-08-15T01:41:00Z,0000382,01000602,0000.06,0000.38,-000.02,-000.14,0000.10,0000.30,-000.02,0000.11,-000.07,27.5,00.0,0664.9,34.8
2016-08-15T01:42:00Z,0000382,01000602,0000.33,0001.12,0000.73,0000.00,0000.10,0000.16,0000.19,0000.25,0000.27,27.5,00.0,0664.9,34.8
2016-08-15T01:43:00Z,0000382,01000602,0000.58,0000.92,-000.29,-000.08,0000.25,0000.18,0000.19,0000.04,0000.16,27.6,00.0,0664.9,34.8
2016-08-15T01:44:00Z,0000382,01000602,0000.35,0000.28,0000.47,-000.21,0000.33,0000.24,0000.48,0000.26,-000.01,27.6,00.0,0664.9,34.8
2016-08-15T01:45:00Z,0000382,01000602,-000.03,0001.35,0000.49,0000.16,-000.06,-000.29,-000.22,-000.10,0000.09,27.6,00.0,0664.9,34.9
2016-08-15T01:46:00Z,0000382,01000602,0000.72,0000.59,-000.28,-000.45,0000.21,0000.32,0000.06,0000.28,0000.09,27.6,00.0,0664.9,34.9
2016-08-15T01:47:00Z,0000382,01000602,0003.90,0004.85,0006.87,0000.70,0001.38,0001.01,0003.36,0003.09,0002.46,27.7,00.0,0664.9,34.9
2016-08-15T01:48:00Z,0000382,01000602,-000.57,-000.15,0000.41,-000.06,-000.16,0000.26,-000.34,-000.41,-000.15,27.6,00.0,0664.9,34.9
2016-08-15T01:49:00Z,0000382,01000602,-000.85,-000.11,-000.72,0000.24,-000.16,-000.43,0000.12,-000.01,-000.29,27.7,00.0,0664.9,34.9
2016-08-15T01:50:00Z,0000382,01000602,0002.13,0003.09,0002.63,0000.26,0000.11,0000.37,0001.25,0001.00,0000.95,27.7,00.0,0664.9,34.9
2016-08-15T01:51:00Z,0000382,01000602,0001.30,0001.16,0000.67,-000.22,0000.05,0000.27,0000.43,0000.45,0000.39,27.7,00.0,0664.9,34.9
2016-08-15T01:52:00Z,0000382,01000602,0000.15,0000.80,0001.46,-000.53,-000.08,0000.13,0000.12,-000.07,-000.11,27.7,00.0,0665.0,34.9
2016-08-15T01:53:00Z,0000382,01000602,-000.44,0000.46,0000.15,0000.13,0000.30,0000.34,-000.11,0000.19,0000.16,27.7,00.0,0664.9,34.9
2016-08-15T01:54:00Z,0000382,01000602,0000.23,0000.14,-000.29,-000.06,0000.06,-000.13,-000.03,-000.07,-000.34,27.7,00.0,0664.9,34.9
2016-08-15T01:55:00Z,0000382,01000602,0000.22,0000.10,0000.28,0000.49,-000.27,-000.06,-000.03,0000.12,0000.06,27.7,00.0,0664.9,34.9
2016-08-15T01:56:00Z,0000382,01000602,0000.40,-000.18,0000.00,0000.16,0000.25,0000.30,0000.00,-000.29,0000.17,27.7,00.0,0664.9,34.9
2016-08-15T01:57:00Z,0000382,41000602,,,,,,,,,,,,0664.8,34.9
2016-08-15T01:58:00Z,0000382,61000602,,,,,,,,,,27.7,00.0,0664.0,34.9
2016-08-15T01:59:00Z,0000382,21000602,,,,,,,,,,27.7,00.0,0663.9,34.9
2016-08-15T02:00:00Z,0000382,21000602,,,,,,,,,,27.7,00.0,0663.9,34.9
2016-08-15T02:01:00Z,0000382,21000602,,,,,,,,,,27.7,00.0,0663.9,34.9
2016-08-15T02:02:00Z,0000382,21000602,,,,,,,,,,27.7,00.0,0663.9,34.9
2016-08-15T02:03:00Z,0000382,61000602,,,,,,,,,,27.7,00.0,0663.9,34.9
2016-08-15T02:04:00Z,0000382,41000602,0000.57,0000.54,0000.13,0000.56,-000.46,-000.24,-000.04,-000.08,0000.12,27.8,00.0,0664.8,34.9
2016-08-15T02:05:00Z,0000382,01000602,0000.71,0000.00,0000.27,-000.29,-000.05,-000.22,0000.09,0000.07,0000.02,27.8,00.0,0664.8,34.9
2016-08-15T02:06:00Z,0000382,01000602,0000.97,0000.07,-000.03,0000.62,0000.33,-000.59,0000.02,0000.01,-000.04,27.8,00.0,0664.8,34.9
2016-08-15T02:07:00Z,0000382,01000602,-000.19,-000.13,0000.52,-000.26,-000.02,-000.14,0000.06,-000.02,0000.09,27.8,00.0,0664.8,34.9
2016-08-15T02:08:00Z,0000382,01000602,0000.24,0000.70,0000.58,-000.18,0000.46,0000.06,0000.20,0000.18,-000.05,27.8,00.0,0664.8,34.9
2016-08-15T02:09:00Z,0000382,01000602,0000.14,0000.31,0000.44,0000.30,-000.30,-000.08,0000.16,0000.23,0000.55,27.8,00.0,0664.8,34.9
2016-08-15T02:10:00Z,0000382,01000602,0001.03,0001.11,0000.64,0000.19,0000.13,-000.29,0000.22,0000.13,-000.12,27.8,00.0,0664.8,34.9
2016-08-15T02:11:00Z,0000382,01000602,0001.06,0000.79,0002.14,0000.37,0000.65,0000.62,0001.24,0001.25,0001.27,27.8,00.0,0664.8,34.9
2016-08-15T02:12:00Z,0000382,01000602,0000.45,0001.01,0000.50,-000.18,0000.03,-000.51,0000.03,0000.06,-000.12,27.8,00.0,0664.8,34.9
2016-08-15T02:13:00Z,0000382,01000602,0001.21,0000.84,0000.43,0000.08,0000.00,-000.11,0000.70,0000.42,0000.18,27.8,00.0,0664.8,34.9
2016-08-15T02:14:00Z,0000382,01000602,0002.40,0002.85,0002.98,0000.37,0000.84,0000.67,0001.64,0001.59,0001.52,27.8,00.0,0664.8,34.9
2016-08-15T02:15:00Z,0000382,01000602,0000.91,0000.74,0000.89,0000.67,0000.03,-000.22,0000.08,-000.06,-000.34,27.9,00.0,0664.8,34.9
2016-08-15T02:16:00Z,0000382,01000602,0000.74,0000.15,0000.15,0000.13,0000.05,-000.19,-000.11,-000.06,-000.07,27.8,00.0,0664.8,34.9
2016-08-15T02:17:00Z,0000382,01000602,0000.95,0000.83,0000.83,0000.13,0000.05,-000.13,0000.01,-000.09,-000.17,27.9,00.0,0664.7,34.9
2016-08-15T02:18:00Z,0000382,01000602,0000.84,0001.62,0000.86,-000.13,0000.21,-000.42,-000.12,0000.00,-000.10,27.9,00.0,0664.7,34.9
2016-08-15T02:19:00Z,0000382,01000602,0000.86,0000.78,0000.95,0000.54,0000.35,0000.08,0000.29,0000.10,-000.11,27.9,00.0,0664.7,34.9
2016-08-15T02:20:00Z,0000382,01000602,0001.70,0001.88,0002.28,0000.48,0000.19,0000.27,0001.19,0001.08,0001.00,27.9,00.0,0664.7,34.9
2016-08-15T02:21:00Z,0000382,01000602,0000.86,0000.45,0000.71,0000.22,-000.19,-000.10,-000.32,-000.14,-000.05,27.9,00.0,0664.8,34.9
2016-08-15T02:22:00Z,0000382,01000602,0001.28,0000.53,0000.06,-000.03,-000.13,-000.34,0000.49,0000.36,0000.23,27.9,00.0,0664.7,34.9
2016-08-15T02:23:00Z,0000382,01000602,0000.36,0000.56,0000.13,-000.18,-000.18,-000.21,0000.22,0000.12,0000.14,27.9,00.0,0664.7,34.9
2016-08-15T02:24:00Z,0000382,01000602,0000.62,0000.13,0000.88,0000.30,0000.10,0000.00,0000.14,0000.40,0000.46,27.9,00.0,0664.7,34.9
2016-08-15T02:25:00Z,0000382,01000602,0001.03,0000.99,0002.28,0000.38,0000.80,0000.10,0000.64,0000.47,0000.38,27.9,00.0,0664.7,34.9
2016-08-15T02:26:00Z,0000382,01000602,0000.84,-000.33,0000.39,-000.18,0000.38,-000.13,-000.03,-000.10,0000.09,27.9,00.0,0664.7,34.9
2016-08-15T02:27:00Z,0000382,01000602,0000.23,-000.17,0000.43,0000.03,0000.14,-000.10,0000.35,0000.18,-000.15,27.9,00.0,0664.7,34.9
2016-08-15T02:28:00Z,0000382,01000602,0001.08,0001.44,0001.89,0000.53,0000.30,0000.21,0000.21,0000.34,0000.33,27.9,00.0,0664.7,34.9
2016-08-15T02:29:00Z,0000382,01000602,0000.89,0000.08,0000.24,0000.03,-000.05,-000.46,0000.21,0000.22,0000.09,28.0,00.0,0664.7,34.9
2016-08-15T02:30:00Z,0000382,01000602,0001.12,0000.43,0000.67,0000.00,-000.02,-000.51,-000.22,-000.10,0000.18,27.9,00.0,0664.7,34.9
2016-08-15T02:31:00Z,0000382,01000602,-001.26,0000.65,0000.47,-000.06,-000.40,-000.03,-000.04,-000.12,-000.12,28.0,00.0,0664.6,34.9
2016-08-15T02:32:00Z,0000382,01000602,0000.17,0000.81,0001.02,0000.05,-000.19,0000.42,0000.25,0000.03,-000.18,28.0,00.0,0664.6,34.9
2016-08-15T02:33:00Z,0000382,01000602,0002.01,0000.47,0001.78,0000.22,0000.29,0000.50,0000.56,0000.81,0000.52,28.0,00.0,0664.6,34.9
2016-08-15T02:34:00Z,0000382,01000602,-000.02,0000.44,0000.65,0000.48,-000.14,0000.05,0000.21,0000.10,0000.34,28.0,00.0,0664.6,34.9
2016-08-15T02:35:00Z,0000382,01000602,0000.66,0000.18,0000.14,-000.08,-000.08,-000.18,-000.04,-000.14,-000.38,28.0,00.0,0664.6,34.9
2016-08-15T02:36:00Z,0000382,01000602,0000.18,-000.19,0000.08,0000.10,-000.08,-000.19,0000.05,-000.11,0000.06,28.0,00.0,0664.6,34.9
2016-08-15T02:37:00Z,0000382,01000602,-000.80,0000.40,-000.30,-000.42,0000.32,-000.19,-000.14,0000.09,-000.11,28.0,00.0,0664.6,34.9
2016-08-15T02:38:00Z,0000382,01000602,0000.18,-000.63,-000.07,0000.02,-000.05,-000.16,0000.13,-000.18,-000.19,27.9,00.0,0664.6,34.9
2016-08-15T02:39:00Z,0000382,01000602,0001.14,0000.36,-000.42,0000.43,-000.05,-000.06,-000.17,-000.23,-000.02,28.0,00.0,0664.6,34.9
2016-08-15T02:40:00Z,0000382,01000602,0000.29,-000.45,-000.11,-000.67,0000.11,-000.40,0000.06,0000.14,-000.05,28.0,00.0,0664.6,34.9
2016-08-15T02:41:00Z,0000382,01000602,0000.14,0000.15,0000.20,-000.64,0000.43,-000.06,0000.23,0000.10,-000.02,28.0,00.0,0664.6,34.9
2016-08-15T02:42:00Z,0000382,01000602,0001.02,0000.97,0001.14,0000.05,0000.33,-000.14,0000.74,0000.79,0000.97,28.0,00.0,0664.6,34.9
2016-08-15T02:43:00Z,0000382,01000602,0000.27,0000.44,0000.18,-000.78,-000.08,-000.46,-000.07,-000.19,-000.21,27.9,00.0,0664.6,34.9
2016-08-15T02:44:00Z,0000382,01000602,0000.24,0000.90,0000.10,-000.18,0000.06,-000.05,-000.11,0000.09,0000.08,27.9,00.0,0664.6,34.9
2016-08-15T02:45:00Z,0000382,01000602,0000.14,0000.21,0000.51,-000.18,0000.33,-000.10,0000.06,-000.01,-000.09,27.9,00.0,0664.6,34.9
2016-08-15T02:46:00Z,0000382,01000602,0003.06,0002.33,0003.36,-000.05,0000.43,0000.05,0000.84,0000.85,0000.52,27.9,00.0,0664.6,34.9
2016-08-15T02:47:00Z,0000382,01000602,-000.24,0000.72,-000.29,-000.16,-000.37,0000.06,-000.06,-000.10,0000.03,27.9,00.0,0664.6,34.9
2016-08-15T02:48:00Z,0000382,01000602,0000.68,0001.11,-000.37,-000.37,0000.53,0000.00,0000.07,0000.26,0000.08,27.9,00.0,0664.5,34.9
2016-08-15T02:49:00Z,0000382,01000602,0000.10,-000.54,-000.20,0000.58,-000.06,-000.32,0000.11,-000.18,-000.10,27.9,00.0,0664.6,34.9
2016-08-15T02:50:00Z,0000382,01000602,0001.73,0001.86,0002.80,0000.18,0000.80,0000.38,0001.36,0001.42,0001.27,27.9,00.0,0664.6,34.9
2016-08-15T02:51:00Z,0000382,01000602,-000.53,0000.26,0000.62,-000.62,-000.06,0000.37,-000.44,-000.40,-000.27,27.9,00.0,0664.6,34.9
2016-08-15T02:52:00Z,0000382,01000602,0000.98,0000.38,0001.49,0000.11,-000.13,0000.53,0000.01,-000.05,-000.27,27.9,00.0,0664.6,34.9
2016-08-15T02:53:00Z,0000382,01000602,0000.28,0000.61,0000.43,0000.74,0000.33,-000.10,0000.14,0000.09,0000.20,27.9,00.0,0664.6,34.9
2016-08-15T02:54:00Z,0000382,01000602,0000.53,0000.02,0000.18,0000.06,0000.03,-000.30,0000.03,-000.18,-000.07,27.8,00.0,0664.6,34.9
2016-08-15T02:55:00Z,0000382,01000602,0000.40,0000.10,0000.74,0000.16,-000.25,-000.02,0000.13,0000.09,-000.53,27.9,00.0,0664.6,34.9
2016-08-15T02:56:00Z,0000382,01000602,0002.08,0002.43,0003.60,0000.66,0000.33,0000.48,0000.97,0001.09,0001.04,27.9,00.0,0664.5,34.9
2016-08-15T02:57:00Z,0000382,41000602,,,,,,,,,,,,0664.5,34.9
2016-08-15T02:58:00Z,0000382,61000602,,,,,,,,,,27.8,00.0,0663.5,34.9
2016-08-15T02:59:00Z,0000382,21000602,,,,,,,,,,27.8,00.0,0663.5,34.9
2016-08-15T03:00:00Z,0000382,21000602,,,,,,,,,,27.8,00.0,0663.5,34.8
2016-08-15T03:01:00Z,0000382,21000602,,,,,,,,,,27.8,00.0,0663.5,34.8
2016-08-15T03:02:00Z,0000382,21000602,,,,,,,,,,27.8,00.0,0663.4,34.8
2016-08-15T03:03:00Z,0000382,61000602,,,,,,,,,,27.8,00.0,0663.4,34.8
2016-08-15T03:04:00Z,0000382,41000602,0000.34,0000.31,0000.73,-001.01,-000.03,0000.32,0000.03,0000.21,0000.01,27.8,00.0,0664.3,34.8
2016-08-15T03:05:00Z,0000382,01000602,0001.33,0001.34,0000.95,-000.05,-000.13,0000.35,0000.22,0000.10,0000.14,27.8,00.0,0664.3,34.8
2016-08-15T03:06:00Z,0000382,01000602,0002.28,0001.04,0000.68,0000.38,-000.22,-000.14,0000.34,0000.57,0000.29,27.8,00.0,0664.3,34.8
2016-08-15T03:07:00Z,0000382,01000602,0000.79,0000.67,0001.34,0000.37,-000.16,0000.24,0000.33,-000.08,0000.13,27.8,00.0,0664.3,34.8
2016-08-15T03:08:00Z,0000382,01000602,0000.62,0000.94,0000.63,-000.02,-000.10,-000.05,0000.01,0000.23,-000.03,27.8,00.0,0664.3,34.8
2016-08-15T03:09:00Z,0000382,01000602,0000.66,0000.93,0000.37,0000.22,0000.14,0000.35,0000.04,-000.01,-000.13,27.8,00.0,0664.3,34.8
2016-08-15T03:10:00Z,0000382,01000602,-001.05,-000.34,0000.13,0000.46,-000.06,-000.19,-000.24,-000.09,-000.15,27.8,00.0,0664.3,34.8
2016-08-15T03:11:00Z,0000382,01000602,-001.02,0000.61,-000.20,-000.27,0000.05,-000.02,0000.17,-000.16,0000.30,27.8,00.0,0664.3,34.8
2016-08-15T03:12:00Z,0000382,01000602,-000.82,0000.24,-000.26,0000.37,-000.27,-000.13,-000.04,0000.14,-000.38,27.8,00.0,0664.3,34.8